User: anonymous   Login
Location: Roanoke
(37.2710°N, 79.9420°W)
Time: 14:01:16
(UTC-05:00)
Language:

Cosmos 1441 Rocket - Orbit

View from above orbital plane
View from above orbital plane
View from above satellite
View from above satellite

Ground track
Ground track

The orbit data is extracted from the following two-line orbital elements,

1 13819U 83010B   14324.63891359  .00004451  00000-0  25674-3 0    39
2 13819 081.1170 174.4833 0034858 225.7345 134.1020 15.11645842731579
Epoch (UTC): 20 November 2014 15:20:02
Eccentricity: 0.0034858
inclination: 81.1170°
perigee height: 507 km
apogee height: 555 km
right ascension of ascending node: 174.4833°
argument of perigee: 225.7345°
revolutions per day: 15.11645842
mean anomaly at epoch: 134.1020°
orbit number at epoch: 73157

The dashed part of the orbit path shows where the satellite is in the earth's shadow,  

DLR